Regional Weather Roundup
Issued by NWS

Home | Current Version | Previous Version | Graphics & Text | Print | Product List | Glossary On
Versions: 1 2 3 4 5 6 7 8 9 10 11 12 13 14 15 16 17 18 19 20 21 22 23 24 25 26 27 28 29 30 31 32 33 34 35 36 37 38 39 40 41 42 43 44 45 46 47 48 49 50
000
ASUS43 KDMX 252101
RWRIA

WEATHER ROUNDUP FOR IOWA
NATIONAL WEATHER SERVICE DES MOINES IA
400 PM CDT MON SEP 25 2017

NOTE: "FAIR" INDICATES FEW OR NO CLOUDS BELOW 12,000 FEET WITH NO
SIGNIFICANT WEATHER AND/OR OBSTRUCTIONS TO VISIBILITY.

* - THESE STATIONS ARE NOT NWS STATIONS...THUS NOT UNDER NWS
QUALITY CONTROL.  THEY ALSO DO NOT REPORT WEATHER SUCH
AS PRECIPITATION OR FOG.

IAZ001>003-012>014-020>022-031>034-043>046-252200-
   NORTHWEST IOWA

CITY           SKY/WX    TMP DP  RH WIND       PRES   REMARKS
CARROLL *      CLOUDY    72  72 100 N10       29.89F
CHEROKEE *     CLOUDY    59  59  99 NE7       29.94S
DENISON *      PTSUNNY   66  64  94 N7        29.92S
LE MARS *      CLOUDY    57  55  94 N10       29.96R
ORANGE CITY *  CLOUDY    57  57 100 NE8       29.95F
SHELDON *      CLOUDY    57  54  88 N9        29.94F
SIOUX CITY     LGT RAIN  58  56  93 N7        29.96R
SPENCER        CLOUDY    59  56  89 NE14      29.93F
STORM LAKE *     N/A     59  59 100 NE12      29.93S
$$

IAZ055>058-069>071-079>083-090>094-252200-
   SOUTHWEST IOWA

CITY           SKY/WX    TMP DP  RH WIND       PRES   REMARKS
ATLANTIC *     LGT RAIN  73  68  83 E5        29.89R
AUDUBON *      MOSUNNY   72  66  83 NE6       29.90S
CLARINDA *     PTSUNNY   70  70 100 CALM      29.90S FOG
COUNCIL BLFS * CLOUDY    66  66 100 NW7G14    29.92S
CRESTON *      LGT RAIN  68  66  94 NW12      29.90F
HARLAN  *      MOSUNNY   73  66  78 N7        29.92F
LAMONI         LGT RAIN  84  67  56 S12G17    29.85F HX  86
RED OAK *      HVY RAIN  70  68  94 S14G29    29.91R VSB 1/4
SHENANDOAH *   LGT RAIN  73  70  88 W6G13     29.90S
$$

IAZ047>049-059>061-072>074-084-252200-
   CENTRAL IOWA

CITY           SKY/WX    TMP DP  RH WIND       PRES   REMARKS
AMES           TSTM      70  66  87 W29G43    29.90R FOG
ANKENY *       CLOUDY    70  66  88 W22       29.90R
BOONE *        RAIN      66  64  94 NW21G40   29.90R VSB 1
CHARITON *     MOSUNNY   84  63  48 S16G22    29.85F HX  85
DES MOINES     CLOUDY    75  64  69 NW16      29.85R THUNDER
GRINNELL*      PTSUNNY   84  64  51 E7        29.87F HX  86
KNOXVILLE *    CLOUDY    86  63  45 S20       29.84F HX  87
MARSHALLTOWN   CLOUDY    84  66  54 SW8       29.84F HX  86
NEWTON *       CLOUDY    86  64  48 S7G14     29.85F HX  87
PELLA *        MOSUNNY   90  61  37 S12G20    29.86F HX  90
PERRY *        PTSUNNY   68  67  97 N9        29.89F
$$

IAZ004>006-015-016-023>025-035-036-252200-
   NORTH CENTRAL IOWA

CITY           SKY/WX    TMP DP  RH WIND       PRES   REMARKS
ALGONA *       LGT RAIN  59  59 100 N10       29.94F
CLARION *      PTSUNNY   66  63  88 NW15G24   29.92R
ESTHERVILLE    LGT RAIN  56  56 100 N14       29.94F
FORT DODGE *   RAIN      62  61  96 N9        29.92F
MASON CITY     MOSUNNY   76  64  66 NW16      29.92S
FOREST CITY *  CLOUDY    64  61  88 NW13      29.94R
WEBSTER CITY * CLOUDY    68  61  77 NW10G22   29.89R
IOWA FALLS *     N/A     82  66  57 N3        29.87F HX  85
$$

IAZ007>011-017>019-026>030-037>042-050>054-066-252200-
   NORTHEAST IOWA

CITY           SKY/WX    TMP DP  RH WIND       PRES   REMARKS
CEDAR RAPIDS   SUNNY     90  62  39 S14       29.86F HX  90
CHARLES CITY * MOSUNNY   81  66  61 E6        29.89F HX  83
CLINTON *      SUNNY    N/A N/A N/A S13       29.89F
DECORAH *      CLOUDY    70  64  83 SE9       29.91F
DUBUQUE        SUNNY     86  64  47 S14       29.89F HX  87
MONTICELLO *   SUNNY     91  63  38 S10G20    29.86F HX  92
OELWEIN *      HVY RAIN  70  68  94 NW12G22   29.92R VSB 1
WATERLOO       CLOUDY    80  64  58 NE13      29.85F HX  82
$$

IAZ064-065-067-068-078-252200-
   EAST CENTRAL IOWA

CITY           SKY/WX    TMP DP  RH WIND       PRES   REMARKS
DAVENPORT      SUNNY     89  63  41 S10       29.90F HX  90
IOWA CITY      SUNNY     92  62  36 S13       29.87F HX  92
MUSCATINE *    SUNNY     91  63  38 SE10      29.86F HX  92
QUAD CITIES    SUNNY     91  62  37 S10       29.87F HX  91
$$

IAZ062-063-075>077-085>089-095>099-252200-
   SOUTHEAST IOWA

CITY           SKY/WX    TMP DP  RH WIND       PRES   REMARKS
BURLINGTON     LGT RAIN  87  68  52 SW8       29.88F HX  90
FAIRFIELD *    MOSUNNY   88  64  45 S9        29.87F HX  89
FORT MADISON * CLOUDY    93  63  36 S9        29.88F HX  94
KEOKUK *       MOSUNNY   91  63  38 S13       29.87F HX  92
OSKALOOSA *      N/A     88  63  42 S13       29.87S HX  89
OTTUMWA        SUNNY     87  63  44 S14       29.87F HX  88
WASHINGTON *   SUNNY     88  64  45 S8G18     29.88F HX  89
$$

ABBREVIATIONS USED IN REMARKS
   TC - TEMPERATURES IN CELSIUS
  WCI - WIND CHILL INDEX
   HX - HEAT INDEX
  VSB - VISIBILITY
$$





USA.gov is the U.S. government's official web portal to all federal, state and local government web resources and services.